{"data":{"norad_id":36033,"epoch":"2026-05-25T03:44:24.780768Z","epoch_age_seconds":64631,"freshness":"FRESH","line1":"1 36033U 09058B   26145.15584237 -.00000012  00000+0  00000+0 0  9992","line2":"2 36033   0.0517 116.2539 0001811 310.6758 231.0712  1.00272277 60772","mean_motion":1.00272277,"eccentricity":0.0001811,"inclination_deg":0.0517,"raan_deg":116.2539,"arg_perigee_deg":310.6758,"mean_anomaly_deg":231.0712,"bstar":0,"rev_number":6077,"period_min":1436.0898576184,"perigee_km":35778.821028315,"apogee_km":35794.093044274,"semimajor_km":42164.594036295,"source":"CELESTRAK","updated_at":"2026-05-25T13:38:13.867729Z"}}